sat.trackr.live / text

‹ back to catalog

STARLINK-34154

NORAD 63995 · 2025-101B

PAYLOAD ACTIVE UNKNOWN

§ Identity

Operator
Country
US
Launch date
2025-05-14
Launch site
AFETR
Launch vehicle
Mass (kg)
RCS (m²)

Purposes: comms

External: N2YO · Heavens-Above · Gunter

§ Orbital elements

Epoch: 2026-09-20T22:03:32.599584Z

Period
94.27 min
Inclination
43.0019°
Eccentricity
0.0001533
Mean motion
15.27586829 rev/d
Perigee alt
482.0 km
Apogee alt
484.1 km
Semi-major
6,861.2 km
B*
4.6897e-4
RAAN
335.3603°
Arg perigee
268.6162°
Mean anomaly
91.4514°
Rev number
7,691

§ Raw data

STARLINK-341541 63995U 25101B   26263.91912731  .00012668  00000+0  46897-3 0  99922 63995  43.0019 335.3603 0001533 268.6162  91.4514 15.27586829 76917

JSON: /api/v1/satellites/63995 · /tle

For live sub-satellite position, see the globe view (requires WebGL).

§ Visibility from observer

Set your observer location to see the next 7 days of passes ≥ 10°. The values pass through the URL so the page stays shareable.

No JS? Fill the form by hand. The geolocation button needs JavaScript.